Weather Roundup
Issued by NWS

Home | Current Version | Previous Version | Text Only | Print | Product List | Glossary On
Versions: 1 2 3 4 5 6 7 8 9 10 11 12 13 14 15 16 17 18 19 20 21 22 23 24 25 26 27 28 29 30 31 32 33 34 35 36 37 38 39 40 41 42 43 44 45 46 47 48 49 50
139
NZUS93 KARX 060210
HRRWXR

CURRENT HOURLY OBSERVATIONS ACROSS
MUCH OF THE UPPER MISSISSIPPI VALLEY
NATIONAL WEATHER SERVICE LA CROSSE WI
800 PM CST MON DEC 05 2016


...SOUTHEAST MINNESOTA...


CITY           SKY/WX    TMP DP  RH WIND       PRES   REMARKS
ROCHESTER      PTCLDY    34  31  88 S18G30    29.72R WCI  23
ROCHESTER/MAYO FAIR      36  31  83 SE13G28   29.73R WCI  27
WINONA         CLOUDY    37  32  81 S6        29.78R WCI  33
AUSTIN         CLOUDY    34  30  86 S12G17    29.72R WCI  25
ALBERT LEA     MIX PCPN  39  37  93 S15G23    29.69S WCI  31
DODGE CENTER   CLOUDY    34  30  86 S22G28    29.70S WCI  22
PRESTON        PTCLDY    32  29  89 SE15      29.75F WCI  22
OWATONNA       CLOUDY    36  32  87 S21G29    29.67S WCI  24
FARIBAULT      DRIZZLE   37  34  87 S13G23    29.67S WCI  29
$$

...ELSEWHERE IN MINNESOTA...


CITY           SKY/WX    TMP DP  RH WIND       PRES   REMARKS
MINNEAPOLIS    CLOUDY    38  31  76 S15G28    29.65F WCI  29
INTNL FALLS    CLOUDY    30  25  81 E13       29.66F WCI  20
DULUTH         CLOUDY    34  33  96 E17       29.67F FOG     WCI  23
RED WING       CLOUDY    37  30  75 S12G17    29.71S WCI  30
REDWOOD FALLS  CLOUDY    39  30  70 W20G29    29.60R WCI  29
MANKATO        CLOUDY    39  35  86 S17G26    29.64R WCI  30
WORTHINGTON    MOCLDY    34  30  85 W24G30    29.65R WCI  21
FAIRMONT       CLOUDY    41  37  86 S16       29.65R
$$

...SOUTHWEST WISCONSIN...


CITY           SKY/WX    TMP DP  RH WIND       PRES   REMARKS
LA CROSSE      CLOUDY    38  31  76 SE15      29.80S WCI  29
PRAIRIE DU CHI CLOUDY    34  31  88 SE8       29.84F WCI  27
BOSCOBEL       CLOUDY    35  31  85 CALM      29.87S
LONE ROCK      CLOUDY    34  31  88 SE8       29.88F WCI  27
PLATTEVILLE    CLOUDY    32  32 100 SE12      29.87S WCI  23
FORT MC COY    CLOUDY    35  31  87 SE7       29.83S WCI  29
CAMP DOUGLAS   MOCLDY    34  30  86 SE10      29.85R WCI  26
MAUSTON-NEW LI CLOUDY    33  31  93 SE12G17   29.85S WCI  24
VIROQUA        CLOUDY    32  32  99 SE16      29.81F WCI  21
WIS DELLS      CLOUDY    32  31  95 SE8       29.88S FOG     WCI  25
$$

...ELSEWHERE IN WISCONSIN...


CITY           SKY/WX    TMP DP  RH WIND       PRES   REMARKS
MILWAUKEE      CLOUDY    34  32  92 S5        29.97F FOG     WCI  30
MADISON        CLOUDY    32  30  92 SE13      29.91F WCI  22
GREEN BAY      CLOUDY    35  34  96 SE5       29.92F WCI  31
EAU CLAIRE     CLOUDY    36  30  79 S7        29.75R WCI  30
BLACK RVR FLS  CLOUDY    35  33  90 SE5       29.80S WCI  31
MEDFORD        CLOUDY    32  30  93 SE10      29.79F WCI  23
WAUSAU         CLOUDY    32  30  92 SE5       29.83F WCI  27
WIS RAPIDS     CLOUDY    32  32 100 SE8       29.86F WCI  25
MARSHFIELD     CLOUDY    32  30  92 SE12      29.81F WCI  23
RICE LAKE      CLOUDY    34  32  91 SE14G21   29.72S WCI  25
$$

...NORTHEAST IOWA...


CITY           SKY/WX    TMP DP  RH WIND       PRES   REMARKS
WATERLOO       CLOUDY    33  31  92 SE18      29.78S FOG     WCI  22
DUBUQUE        FOG       31  31 100 S18       29.86S VSB 1/4 WCI  19
DECORAH        CLOUDY    32  30  93 S13G21    29.79R WCI  22
MASON CITY     CLOUDY    35  33  92 S15       29.74R WCI  25
CHARLES CITY   CLOUDY    34  34 100 SE20      29.75S FOG     WCI  22
OELWEIN        CLOUDY    32  32 100 SE21G28   29.80S FOG     WCI  20
$$

...ELSEWHERE IN IOWA...


CITY           SKY/WX    TMP DP  RH WIND       PRES   REMARKS
DES MOINES     MOCLDY    40  35  83 S8        29.77R WCI  34
IOWA CITY      CLOUDY    34  32  92 SE14      29.87S WCI  25
FORT DODGE     CLOUDY    43  36  75 S15G21    29.72S
MARSHALLTOWN   CLOUDY    34  33  96 SE18      29.77R WCI  23
CEDAR RAPIDS   CLOUDY    32  32 100 SE14G22   29.83F FOG     WCI  22
$$

...NORTHERN ILLINOIS...


CITY           SKY/WX    TMP DP  RH WIND       PRES   REMARKS
CHICAGO-OHARE  CLOUDY    32  29  88 SE9       29.97F FOG     WCI  24
CHICAGO-MIDWAY CLOUDY    33  28  81 SE8       29.98F WCI  26
MOLINE         CLOUDY    35  31  85 E13       29.90S WCI  26
ROCKFORD       CLOUDY    31  29  92 SE16      29.97R FOG     WCI  20
PEORIA         CLOUDY    36  34  92 E8        29.92F WCI  30
$$

NOTE: "FAIR" INDICATES FEW OR NO CLOUDS BELOW 12,000 FEET WITH NO
SIGNIFICANT WEATHER AND/OR OBSTRUCTIONS TO VISIBILITY. WIND
SPEEDS ARE IN MILES-PER-HOUR.




USA.gov is the U.S. government's official web portal to all federal, state and local government web resources and services.